This is the latest recevied weather packets stored in our database for station/object EUGENE. If no packets are shown the sender has not sent any weather packets the latest 10 day(s).
| Time | Temp. | Humidity | Pressure | Rain* | Wind** | Luminosity | Snow |
|---|---|---|---|---|---|---|---|
| 1777823829 | 14.44° C | 94% | 1012 hPa | 0 mm | - | - | - |
| 1777822928 | 13.89° C | 97% | 1011.9 hPa | 0 mm | - | - | - |
| 1777822028 | 12.78° C | 97% | 1011.8 hPa | 0 mm | - | - | - |
| 1777821129 | 12.22° C | 97% | 1011.9 hPa | 0 mm | - | - | - |
| 1777820228 | 11.11° C | 97% | 1011.9 hPa | 0 mm | - | - | - |
| 1777819328 | 10.56° C | 97% | 1011.9 hPa | 0 mm | - | - | - |
| 1777818428 | 9.44° C | 97% | 1011.8 hPa | 0 mm | - | - | - |
| 1777817528 | 8.89° C | 97% | 1011.8 hPa | 0 mm | - | - | - |
| 1777816628 | 8.33° C | 96% | 1011.8 hPa | 0 mm | - | - | - |
| 1777815728 | 8.33° C | 96% | 1011.7 hPa | 0 mm | - | - | - |
| 1777814828 | 8.33° C | 96% | 1011.6 hPa | 0 mm | - | - | - |
| 1777813928 | 8.33° C | 96% | 1011.4 hPa | 0 mm | - | - | - |
| 1777813028 | 8.33° C | 96% | 1011.5 hPa | 0 mm | - | - | - |
| 1777812127 | 8.33° C | 95% | 1011.4 hPa | 0 mm | - | - | - |
| 1777811228 | 8.89° C | 96% | 1011.5 hPa | 0 mm | - | - | - |
| 1777810327 | 8.89° C | 95% | 1011.6 hPa | 0 mm | - | - | - |
| 1777809428 | 8.89° C | 95% | 1011.7 hPa | 0 mm | - | - | - |
| 1777808527 | 8.89° C | 95% | 1011.8 hPa | 0 mm | - | - | - |
| 1777807627 | 8.89° C | 95% | 1011.8 hPa | 0 mm | - | - | - |
| 1777806728 | 8.89° C | 95% | 1011.8 hPa | 0 mm | - | - | - |
| 1777805827 | 9.44° C | 95% | 1011.8 hPa | 0 mm | - | - | - |
| 1777804927 | 9.44° C | 95% | 1011.8 hPa | 0 mm | - | - | - |
| 1777804027 | 9.44° C | 95% | 1011.7 hPa | 0 mm | - | - | - |
| 1777803128 | 9.44° C | 95% | 1011.8 hPa | 0 mm | - | - | - |
| 1777802227 | 10° C | 94% | 1011.7 hPa | 0 mm | - | - | - |
* Rain latest hour (hover to see other rain measurements)
** Current wind speed in m/s (hover to see current wind gust speed)